Regional Weather Roundup
Issued by NWS Goodland, KS

Home | Current Version | Previous Version | Graphics & Text | Print | Product List | Glossary On
Versions: 1 2 3 4 5 6 7 8 9 10 11 12 13 14 15 16 17 18 19 20 21 22 23 24 25 26 27 28 29 30 31 32 33 34 35 36 37 38 39 40 41 42 43 44 45 46 47 48 49 50
000
ASUS43 KGLD 251459
RWRGLD

GOODLAND FORECAST AREA HOURLY WEATHER ROUNDUP
NATIONAL WEATHER SERVICE GOODLAND KS
800 AM MST SUN JAN 25 2015

...OFFICIAL OBSERVATIONS...

CITY           SKY/WX    TMP DP  RH WIND       PRES   REMARKS
GOODLAND KS    CLEAR     37  27  67 NW16      30.10R
HILL CITY KS   SUNNY     40  26  57 NW20G26   30.04R
IMPERIAL NEB   CLEAR     34  24  67 NW12      30.09R
MCCOOK NEB     CLEAR     38  25  59 NW16      30.05R
AKRON CO       CLEAR     31  27  85 CALM      30.13R
BURLINGTON CO  CLEAR     36  27  69 NW17      30.12R
LIMON CO       PTCLDY    30  26  85 W8        30.15R
$$

...UNOFFICIAL OBSERVATIONS...

CITY           SKY/WX    TMP DP  RH WIND       PRES   REMARKS
COLBY KS       CLEAR     36  28  75 W12       30.09R
GOVE KS          N/A     32  32 100 MISG        N/A
NORTON KS      SUNNY     37  25  60 W16       30.03R
SHARON SPRINGS   N/A     36  28  73 W10G17      N/A
KIT CARSON CO    N/A     34  27  75 MISG        N/A
YUMA CO          N/A     32  26  79 N13         N/A
$$



USA.gov is the U.S. government's official web portal to all federal, state and local government web resources and services.